#timestamp,LO_Frequency,Hit,StdDev 
1628161215.5,286046998.3,N
1628161235.3,286046998.1,N
1628161255.2,286046999.9,N
1628161275.0,286047001.4,N
1628161275.9,286047001.4,N
1628161295.8,286047001.7,N
1628161315.6,286047003.9,N
1628161335.4,286047005.6,Y
1628161355.3,286047007.5,P
1628161375.1,286047007.0,N
1628161395.9,286047007.5,N
1628161415.7,286047007.1,N
1628161435.5,286047007.1,N
1628161455.4,286047006.6,N
1628161475.2,286047007.7,N
1628161495.0,286047010.3,Y
1628161495.9,286047010.3,P
1628161515.8,286047003.9,N
1628161535.6,286047001.4,N
1628161555.5,286047003.1,N
1628161575.3,286047001.3,N
1628161595.1,286047004.0,N
1628161615.9,286047001.8,N
1628161635.7,286047002.5,N
1628161655.5,286047000.3,N
1628161675.4,286047000.4,N
1628161695.2,286047000.1,N
1628161715.1,286047002.5,N
1628161716.0,286047002.5,N
1628161735.8,286047002.7,N
1628161755.6,286046999.8,N
1628161775.5,286047001.5,N
1628161795.3,286047004.1,N
1628161815.1,286047003.3,N
1628161835.9,286047004.1,N
1628161855.7,286047006.0,N
1628161875.6,286047004.3,N
1628161895.4,286047001.5,N
1628161915.2,286047001.4,N
1628161935.1,286047004.2,N
1628161936.0,286047004.2,N
1628161955.8,286047004.4,N
1628161975.6,286047004.0,N
1628161995.5,286047001.7,N
1628162015.3,286047002.2,N
1628162035.2,286046999.8,N
1628162055.9,286046998.3,N
1628162075.7,286046998.6,N
1628162095.6,286046996.5,N
1628162115.4,286046997.4,N
1628162135.2,286046997.4,N
1628162155.1,286046997.8,N
1628162156.0,286046997.8,N
1628162175.8,286046997.3,N
1628162195.7,286046995.5,N
1628162215.5,286046996.0,N
1628162235.3,286046993.6,N
1628162255.2,286046994.1,N
1628162275.0,286046993.7,N
1628162275.9,286046993.7,N
1628162295.8,286046996.1,N
1628162315.6,286046995.3,N
1628162335.4,286046995.1,N
1628162355.3,286046993.3,N
1628162375.1,286046993.4,N
1628162395.8,286046993.3,N
1628162415.7,286046995.9,N
1628162435.5,286046996.3,N
1628162455.4,286046996.0,N
1628162475.2,286046993.7,N
1628162495.0,286046993.8,N
1628162495.9,286046993.8,N
1628162515.8,286046993.9,N
1628162535.6,286046994.8,N
1628162555.4,286046993.7,N
1628162575.3,286046991.9,Y
1628162595.1,286046994.9,P
1628162615.9,286046998.9,P
1628162635.7,286046998.9,N
1628162655.5,286046999.6,N
1628162675.4,286046995.4,N
1628162695.2,286046995.6,N
1628162715.0,286046995.1,N
1628162715.9,286046995.1,N
1628162735.8,286046995.4,N
1628162785.7,286046995.5,E
1628162795.6,286046999.1,N
1628162815.4,286047000.6,P
1628162835.2,286046998.6,N
1628162855.1,286047000.6,N
1628162856.0,286047000.6,N
1628162875.8,286046996.7,Y
1628162895.7,286046999.3,P
1628162915.5,286046999.0,P
1628162935.3,286046998.7,P
1628162955.2,286046998.9,N
1628162975.0,286046999.3,N
1628162975.9,286046999.3,N
1628162995.8,286047001.0,N
1628163015.6,286047000.0,N
1628163035.4,286047000.3,N
1628163055.3,286047000.3,N
1628163075.1,286046998.1,N
1628163095.8,286046998.7,N
1628163115.7,286046998.4,N
1628163135.5,286047001.0,N
1628163155.4,286046999.9,N
1628163175.2,286047001.9,N
1628163195.0,286047002.0,N
1628163195.9,286047002.0,N
1628163215.8,286047002.6,N
1628163235.6,286046999.7,N
1628163255.4,286046999.8,N
1628163275.3,286046998.3,N
1628163295.1,286046998.6,N
1628163315.9,286046998.3,N
1628163335.7,286046998.5,N
1628163355.5,286047000.6,N
1628163375.4,286047000.2,N
1628163395.3,286046999.9,N
1628163415.1,286046999.7,N
1628163416.0,286046999.7,N
1628163435.8,286047000.4,N
1628163455.7,286047002.6,N
1628163475.5,286047002.6,N
1628163495.3,286047000.2,N
1628163515.2,286047000.1,N
1628163535.0,286047002.1,N
1628163535.9,286047002.1,N
1628163555.8,286047001.5,N
1628163575.6,286047001.5,N
1628163595.4,286047004.3,N
1628163615.3,286047001.6,N
1628163635.1,286047002.5,N
1628163655.8,286047001.8,N
1628163675.7,286047004.1,N
1628163695.5,286047004.0,N
1628163715.4,286047001.7,N
1628163735.2,286047002.6,N
1628163755.0,286047002.1,N
1628163756.0,286047002.1,N
1628163775.8,286047001.4,N
1628163795.6,286047002.2,N
1628163815.5,286047002.5,N
1628163835.3,286047004.2,N
1628163855.1,286047002.1,N
1628163875.9,286047002.0,N
1628163895.7,286047001.5,N
1628163915.6,286047005.9,Y
1628163935.4,286047001.9,P
1628163955.2,286047000.6,P
1628163975.1,286047002.7,P
1628163976.0,286047002.7,Y
1628163995.8,286047011.9,P
1628164015.7,286046998.7,N
1628164035.5,286046998.3,N
1628164055.3,286046999.2,N
1628164075.2,286046998.3,N
1628164095.0,286046999.1,N
1628164095.9,286046999.1,N
1628164115.7,286046996.5,N
1628164135.6,286046998.3,N
1628164155.4,286047000.8,N
1628164175.3,286047000.2,N
1628164195.1,286047000.1,N
1628164196.0,286047000.1,N
1628164215.8,286047000.5,N
1628164235.7,286046998.6,N
1628164255.5,286046999.0,N
1628164275.3,286046998.1,N
1628164295.2,286047000.5,N
1628164315.0,286047000.0,N
1628164315.9,286047000.0,N
1628164335.8,286047001.0,N
1628164355.6,286046998.8,N
1628164375.4,286046996.9,N
1628164395.3,286046999.3,N
1628164415.1,286047001.1,N
1628164435.9,286046998.6,N
1628164455.7,286046998.2,N
1628164475.5,286046996.9,N
1628164495.4,286046996.8,N
1628164515.2,286047001.2,N
1628164535.0,286046998.9,N
1628164535.9,286046998.9,N
1628164555.8,286046999.3,N
1628164575.6,286047000.8,N
1628164595.4,286047002.7,N
1628164615.3,286047002.7,N
1628164635.1,286047001.7,N
1628164655.9,286047001.6,N
1628164675.7,286047001.9,N
1628164695.5,286047002.4,N
1628164715.4,286047002.6,N
1628164735.2,286047003.7,N
1628164755.0,286047003.5,N
1628164756.0,286047003.5,N
1628164775.8,286047003.7,N
1628164795.6,286047002.9,N
